#timestamp,LO_Frequency,Hit,StdDev 
1681729215.6,286046998.9,N
1681729235.5,286047002.8,N
1681729255.3,286047004.0,N
1681729275.1,286047002.7,N
1681729295.9,286047001.3,N
1681729315.7,286047002.8,N
1681729335.5,286046997.1,N
1681729355.4,286046998.4,N
1681729375.2,286047001.6,N
1681729395.1,286047001.4,N
1681729396.0,286047001.4,N
1681729415.8,286047000.4,N
1681729465.6,286047000.7,E
1681729475.6,286046998.2,N
1681729495.4,286046997.3,P
1681729515.2,286046999.7,N
1681729535.1,286047001.2,N
1681729536.0,286047001.2,N
1681729555.8,286046999.7,N
1681729575.7,286046999.1,N
1681729595.5,286046998.5,N
1681729615.3,286046998.6,N
1681729635.2,286046996.7,N
1681729655.9,286047000.7,N
1681729675.7,286046996.5,N
1681729695.6,286046997.7,N
1681729715.4,286046998.4,N
1681729735.3,286047011.9,Y
1681729755.1,286046998.2,P
1681729756.0,286046998.2,P
1681729775.8,286046999.7,N
1681729795.7,286047002.4,Y
1681729815.5,286047001.5,P
1681729835.3,286046999.7,N
1681729855.2,286047000.6,N
1681729875.0,286046998.6,N
1681729875.9,286046998.6,N
1681729895.8,286047001.6,N
1681729915.6,286047002.0,N
1681729935.4,286046999.7,N
1681729955.3,286047003.8,N
1681729975.1,286047004.2,N
1681729976.0,286047004.2,N
1681729995.8,286047003.7,N
1681730015.7,286047004.0,N
1681730035.5,286047000.7,N
1681730055.3,286047002.1,N
1681730075.2,286046998.5,N
1681730095.0,286046996.9,N
1681730095.9,286046996.9,N
1681730115.8,286046998.1,N
1681730135.6,286047003.9,N
1681730155.4,286046999.8,N
1681730175.3,286047001.2,N
1681730195.1,286047000.7,N
1681730215.8,286047001.0,N
1681730235.7,286046998.2,N
1681730255.5,286047000.1,N
1681730275.4,286047000.5,N
1681730295.2,286046998.6,N
1681730315.0,286046998.6,N
1681730315.9,286046998.6,N
1681730335.8,286047000.9,N
1681730355.6,286046998.1,N
1681730375.4,286046998.5,N
1681730395.3,286047000.9,N
1681730415.1,286046999.8,N
1681730435.9,286047000.3,N
1681730455.7,286047000.9,N
1681730475.5,286047001.1,N
1681730495.4,286047001.9,N
1681730515.2,286047000.3,N
1681730535.0,286047002.8,N
1681730535.9,286047002.8,N
1681730555.8,286046998.4,N
1681730575.6,286046999.7,N
1681730595.5,286047002.5,N
1681730615.3,286047000.1,N
1681730635.1,286046999.8,N
1681730655.9,286047002.4,N
1681730675.7,286046997.0,N
1681730695.5,286046999.2,N
1681730715.4,286047002.0,N
1681730735.2,286047001.9,N
1681730755.0,286047001.5,N
1681730755.9,286047001.5,N
1681730775.8,286047002.7,N
1681730795.6,286047000.4,N
1681730815.5,286047000.6,N
1681730835.3,286047000.7,N
1681730855.1,286046999.0,N
1681730875.9,286047002.2,N
1681730895.7,286047001.1,N
1681730915.5,286046998.5,N
1681730935.4,286046999.4,N
1681730955.2,286047002.6,N
1681730975.1,286047002.3,N
1681730976.0,286047002.3,N
1681730995.8,286046998.1,N
1681731015.6,286046998.4,N
1681731035.5,286047000.7,N
1681731055.3,286046999.5,N
1681731075.1,286046998.3,N
1681731095.9,286047001.0,N
1681731115.7,286047002.4,N
1681731135.6,286046996.6,N
1681731155.4,286047001.0,N
1681731175.2,286047000.9,N
1681731195.1,286046998.2,N
1681731196.0,286046998.2,N
1681731215.8,286046999.2,N
1681731235.6,286046997.6,N
1681731255.5,286047001.0,N
1681731275.3,286047002.8,N
1681731295.1,286047001.2,N
1681731315.9,286047000.8,N
1681731335.7,286047000.1,N
1681731355.6,286047000.2,N
1681731375.4,286046998.4,N
1681731395.2,286047000.4,N
1681731415.1,286047001.1,N
1681731416.0,286047001.1,N
1681731435.8,286046997.6,N
1681731455.6,286047002.3,N
1681731475.5,286047011.9,Y
1681731495.3,286047000.3,P
1681731515.2,286046998.2,P
1681731535.9,286047001.2,N
1681731555.7,286046998.7,N
1681731575.6,286046998.1,N
1681731595.4,286047001.1,N
1681731615.2,286046998.5,N
1681731635.1,286047001.1,N
1681731636.0,286047001.1,N
1681731655.8,286046998.8,N
1681731675.7,286046999.3,N
1681731695.5,286046996.7,N
1681731715.3,286046999.1,N
1681731735.2,286046997.1,N
1681731755.9,286046999.0,N
1681731775.7,286046995.2,Y
1681731795.6,286047001.1,P
1681731815.4,286046999.3,N
1681731835.3,286046999.2,N
1681731855.1,286046998.2,N
1681731856.0,286046998.2,N
1681731875.8,286046998.8,N
1681731895.7,286046998.1,N
1681731915.5,286047001.5,N
1681731935.3,286047000.5,N
1681731955.2,286046998.8,N
1681731975.0,286046999.3,N
1681731975.9,286046999.3,N
1681731995.8,286046999.5,N
1681732015.6,286046998.1,N
1681732035.4,286046999.9,N
1681732055.3,286047001.0,N
1681732075.1,286047001.0,N
1681732095.8,286047004.2,Y
1681732115.7,286047001.0,P
1681732135.5,286047000.0,N
1681732155.4,286047000.9,N
1681732175.2,286046998.1,Y
1681732195.0,286046998.3,P
1681732195.9,286046998.3,N
1681732215.8,286047002.3,N
1681732235.6,286047001.1,N
1681732255.4,286046997.4,N
1681732275.3,286047002.5,N
1681732295.1,286047002.3,N
1681732315.9,286046998.6,N
1681732335.7,286046997.3,N
1681732355.5,286046999.9,N
1681732375.4,286046998.1,N
1681732395.2,286046999.4,N
1681732415.0,286047002.5,N
1681732415.9,286047002.5,N
1681732435.8,286047001.2,N
1681732455.6,286047002.7,N
1681732475.5,286047013.0,Y
1681732495.3,286047017.2,P
1681732515.1,286047015.2,N
1681732535.9,286047015.5,N
1681732555.7,286047000.3,N
1681732575.5,286047013.8,N
1681732595.4,286047013.7,N
1681732615.2,286047002.4,N
1681732635.1,286047012.8,N
1681732636.0,286047012.8,N
1681732655.8,286047013.3,N
1681732675.6,286047015.4,N
1681732695.5,286047002.5,N
1681732715.3,286047013.4,N
1681732735.1,286047013.9,N
1681732755.9,286047013.3,N
1681732775.7,286047011.4,N
1681732795.6,286047009.4,N
